Regional Weather Roundup
Issued by NWS State College, PA

Home | Current Version | Previous Version | Text Only | Print | Product List | Glossary Off
Versions: 1 2 3 4 5 6 7 8 9 10 11 12 13 14 15 16 17 18 19 20 21 22 23 24 25 26 27 28 29 30 31 32 33 34 35 36 37 38 39 40 41 42 43 44 45 46 47 48 49 50

000
ASUS41 KCTP 270710
RWRCTP

REGIONAL WEATHER ROUNDUP
NATIONAL WEATHER SERVICE STATE COLLEGE PA
300 AM EDT THU APR 27 2017

Note: "fair" indicates few or no clouds below 12,000 feet with no
significant weather and/or obstructions to visibility.

* = STATION THAT DOES NOT REPORT PRECIPITATION /E.G. RAIN...SNOW...ETC/
    THUNDER OR FOG.

PAZ002>004-007>009-013>016-020>023-029>032-270800-
WESTERN PENNSYLVANIA

CITY           SKY/WX    TMP DP  RH WIND       PRES   REMARKS
ERIE           CLEAR     66  55  67 SE15      29.64F
MEADVILLE      CLEAR     63  55  75 VRB5      29.68F
FRANKLIN*      CLEAR     57  52  82 E6        29.72S
NEW CASTLE     FAIR      60  55  83 CALM      29.68F
BEAVER COUNTY  NOT AVBL
BUTLER*        CLEAR     63  55  77 SE5       29.70F
PITTSBURGH INT CLEAR     63  57  81 SE3       29.68F
PITTSBURGH     CLEAR     62  54  74 SE7       29.69S
INDIANA*       CLEAR     64  57  77 SE3       29.75F
LATROBE        CLEAR     57  57 100 CALM      29.71F
WASHINGTON CO* CLEAR     54  52  94 SW3       29.71S
$$

PAZ004>006-010>012-017>019-024>028-033>037-041-042-045-046-049>053-270800-
CENTRAL PENNSYLVANIA

CITY           SKY/WX    TMP DP  RH WIND       PRES   REMARKS
BRADFORD       CLEAR     57  54  89 SE7       29.77S
DUBOIS         CLEAR     59  54  83 SE10      29.74F
CLEARFIELD     CLEAR     54  53  97 N6        29.78S
JOHNSTOWN      CLEAR     58  56  93 S10       29.77F
ALTOONA        CLEAR     59  56  89 S5        29.79F
STATE COLLEGE  CLEAR     58  56  91 SW5       29.79F
WILLIAMSPORT   CLOUDY    62  57  83 VRB3      29.79S
SELINSGROVE    CLEAR     51  51 100 CALM      29.81F FOG
FT INDIANTOWN  FOG       52  52 100 CALM      29.83S VSB 1/2
CAPITAL CITY   CLEAR     57  55  93 CALM      29.82S FOG
HARRISBURG     CLEAR     52  52 100 E3        29.82F FOG
YORK           PTCLDY    51  51 100 CALM      29.82F FOG
$$

PAZ038>040-043-044-047-048-054-055-060>062-067>071-270800-
EASTERN PENNSYLVANIA

CITY           SKY/WX    TMP DP  RH WIND       PRES   REMARKS
SCRANTON       PTCLDY    58  55  90 E5        29.82S
MOUNT POCONO   FOG       54  54 100 SE5       29.85F VSB 1/2
ALLENTOWN      CLOUDY    62  55  77 S3        29.84F
QUAKERTOWN*    CLOUDY    59  57  94 CALM      29.85F
READING        CLOUDY    62  59  90 S3        29.83S
LANCASTER      FOG       56  56 100 CALM      29.83F VSB 1/4
COATESVILLE    CLOUDY    59  59 100 CALM      29.86S FOG
POTTSTOWN      CLOUDY    58  56  93 CALM      29.85F
BLUE BELL      CLOUDY    57  57 100 CALM      29.86S
DOYLESTOWN     CLOUDY    59  58  96 CALM      29.84S
WILLOW GROVE   NOT AVBL
NORTH PHILA    CLOUDY    62  57  83 CALM      29.86S
PHILADELPHIA   CLOUDY    61  57  87 CALM      29.85S
$$



USA.gov is the U.S. government's official web portal to all federal, state and local government web resources and services.